Waarnemingen

Advertentie
Mijn weer
AWG, Nederland (6208): temperatuur & dauwpunt: 20.09.2018 09:00:00 - 26.09.2018 09:00:00 (CEST)AWG, Nederland (6208): windsnelheid & windstoten: 20.09.2018 09:00:00 - 26.09.2018 09:00:00 (CEST)AWG, Nederland (6208): windrichting: 20.09.2018 09:00:00 - 26.09.2018 09:00:00 (CEST)AWG, Nederland (6208): luchtdruk: 20.09.2018 09:00:00 - 26.09.2018 09:00:00 (CEST)AWG, Nederland (6208): zicht: 20.09.2018 09:00:00 - 26.09.2018 09:00:00 (CEST)
Datum & Tijd tt [°C] td [°C] ff [km/u] ff [kn] fx [km/u] fx [kn] dd ppp [hPa] vv [km]
26.09.2018 09:00:00 12,0 8,0 37 20 - - ZZW 1029,5 10
26.09.2018 08:00:00 11,9 7,9 37 20 47 25 ZZW 1029,9 10
26.09.2018 07:00:00 11,7 7,5 44 24 50 27 - 1029,8 10
26.09.2018 06:00:00 11,8 7,3 41 22 47 25 - 1030,8 10
26.09.2018 05:00:00 11,7 7,4 37 20 47 25 - 1031,6 10
26.09.2018 04:00:00 11,6 7,7 35 19 43 23 - 1032,1 10
26.09.2018 03:00:00 11,5 7,7 37 20 40 21 ZZW 1033,0 10
26.09.2018 02:00:00 11,4 8,0 31 17 36 19 ZZW 1033,9 10
26.09.2018 01:00:00 11,7 7,0 29 16 36 19 ZZW 1034,5 10
26.09.2018 00:00:00 12,4 6,7 31 17 36 19 ZZW 1035,2 10
25.09.2018 23:00:00 12,8 7,3 28 15 29 16 ZZW 1035,7 10
25.09.2018 22:00:00 13,1 7,9 24 13 32 18 - 1035,7 10
25.09.2018 21:00:00 13,3 7,8 29 16 32 18 ZZW 1035,9 10
25.09.2018 20:00:00 13,6 7,4 22 12 29 16 ZZW 1036,5 10
25.09.2018 19:00:00 14,6 6,8 16 9 18 10 ZW 1036,8 10
25.09.2018 18:00:00 14,2 7,0 16 9 22 12 WZW 1037,1 10
25.09.2018 17:00:00 15,9 5,3 18 10 22 12 WZW 1037,4 10
25.09.2018 16:00:00 14,0 5,2 18 10 18 10 WZW 1037,7 10
25.09.2018 15:00:00 13,8 5,3 16 9 18 10 ZW 1038,0 10
25.09.2018 14:00:00 13,7 6,8 18 10 18 10 ZZW 1038,5 10
25.09.2018 13:00:00 13,3 7,1 15 8 14 8 ZW 1038,9 10
25.09.2018 12:00:00 13,1 7,7 13 7 18 10 ZZW 1039,1 10
25.09.2018 11:00:00 11,9 8,3 18 10 18 10 ZZW 1038,6 10
25.09.2018 10:00:00 11,4 8,5 11 6 18 10 Z 1038,1 10
25.09.2018 09:00:00 10,7 8,1 4 2 22 12 - 1037,6 10
25.09.2018 08:00:00 11,3 6,8 24 13 29 16 NW 1037,0 10
25.09.2018 07:00:00 12,7 5,7 16 9 22 12 NW 1036,6 42
25.09.2018 06:00:00 12,2 6,5 15 8 40 21 N 1036,6 -
25.09.2018 05:00:00 12,4 4,4 34 18 40 21 WNW 1036,4 -
25.09.2018 04:00:00 12,5 5,8 22 12 29 16 NW 1036,3 -
25.09.2018 03:00:00 12,4 5,7 15 8 40 21 NW 1036,1 -
25.09.2018 02:00:00 11,9 6,3 39 21 43 23 N 1036,0 -
25.09.2018 01:00:00 12,1 4,8 42 23 47 25 N 1036,0 -
25.09.2018 00:00:00 12,7 5,1 31 17 32 18 NW 1035,4 -
24.09.2018 23:00:00 12,4 4,2 37 20 54 29 NW 1035,0 -
24.09.2018 22:00:00 12,6 5,9 37 20 50 27 NW 1034,6 -
24.09.2018 21:00:00 12,4 5,6 41 22 47 25 WNW 1034,1 -
24.09.2018 20:00:00 12,7 5,0 41 22 50 27 NW 1033,4 10
24.09.2018 19:00:00 12,6 4,6 37 20 54 29 NNW 1033,1 -
24.09.2018 18:00:00 12,7 5,5 50 27 50 27 NNW 1032,8 -
24.09.2018 17:00:00 13,0 5,7 50 27 58 31 NW 1032,6 -
24.09.2018 16:00:00 12,1 6,4 52 28 65 35 NW 1032,6 -
24.09.2018 15:00:00 12,4 3,8 54 29 61 33 NW 1031,8 -
24.09.2018 14:00:00 12,3 5,2 48 26 68 37 WNW 1031,3 8
24.09.2018 13:00:00 13,0 6,8 59 32 65 35 WNW 1030,7 10
24.09.2018 12:00:00 12,9 6,0 59 32 61 33 NW 1030,3 10
24.09.2018 11:00:00 12,7 4,9 52 28 61 33 NW 1029,3 10
24.09.2018 10:00:00 12,7 2,5 59 32 65 35 NW 1029,0 10
24.09.2018 09:00:00 12,4 4,8 61 33 65 35 NW 1027,7 10
24.09.2018 08:00:00 10,6 5,8 55 30 68 37 WNW 1027,4 7
24.09.2018 07:00:00 11,5 4,9 76 41 79 43 WNW 1026,5 19
24.09.2018 06:00:00 12,5 4,9 57 31 65 35 WNW 1025,9 10
24.09.2018 05:00:00 12,5 3,7 55 30 72 39 NW 1025,3 10
24.09.2018 04:00:00 12,7 3,3 59 32 72 39 NW 1024,3 10
24.09.2018 03:00:00 12,8 4,1 59 32 61 33 NW 1023,7 10
24.09.2018 02:00:00 12,5 3,6 57 31 79 43 NW 1022,6 10
24.09.2018 01:00:00 12,6 4,3 61 33 76 41 NW 1021,6 10
24.09.2018 00:00:00 12,5 4,2 63 34 72 39 NW 1020,6 10
23.09.2018 23:00:00 11,1 6,1 74 40 79 43 NW 1019,5 9
23.09.2018 22:00:00 12,7 2,9 61 33 72 39 NNW 1018,0 10
23.09.2018 21:00:00 13,2 5,2 59 32 68 37 NW 1017,1 10
23.09.2018 20:00:00 13,1 4,9 57 31 65 35 N 1015,7 10
23.09.2018 19:00:00 13,4 5,5 55 30 61 33 N 1014,1 10
23.09.2018 18:00:00 13,1 3,3 54 29 58 31 N 1013,6 10
23.09.2018 17:00:00 11,3 8,0 11 6 25 14 NNO 1013,4 10
23.09.2018 16:00:00 11,4 7,1 42 23 43 23 N 1012,7 10
23.09.2018 15:00:00 12,4 6,9 46 25 47 25 N 1011,8 10
23.09.2018 14:00:00 13,2 6,8 21 11 29 16 N 1012,1 10
23.09.2018 13:00:00 13,6 5,0 13 7 22 12 N 1012,2 10
23.09.2018 12:00:00 13,5 3,1 13 7 22 12 WNW 1012,4 10
23.09.2018 11:00:00 13,1 3,5 9 5 18 10 WZW 1012,5 10
23.09.2018 10:00:00 12,3 8,7 13 7 14 8 ZW 1012,8 10
23.09.2018 09:00:00 12,4 8,7 11 6 14 8 WZW 1013,0 10
23.09.2018 08:00:00 12,4 10,0 15 8 14 8 ZZW 1013,1 10
23.09.2018 07:00:00 12,4 8,7 13 7 18 10 W 1013,3 10
23.09.2018 06:00:00 12,2 9,9 15 8 18 10 ZW 1013,3 10
23.09.2018 05:00:00 12,5 10,1 15 8 18 10 ZZW 1013,9 10
23.09.2018 04:00:00 12,6 10,2 18 10 18 10 ZW 1014,2 10
23.09.2018 03:00:00 12,6 10,0 18 10 18 10 ZW 1014,8 10
23.09.2018 02:00:00 13,0 8,9 16 9 18 10 ZZW 1015,1 10
23.09.2018 01:00:00 13,8 5,0 16 9 22 12 W 1015,3 10
23.09.2018 00:00:00 13,8 5,5 21 11 22 12 WNW 1015,4 10
22.09.2018 23:00:00 13,9 6,1 22 12 29 16 WNW 1015,7 10
22.09.2018 22:00:00 13,9 6,4 29 16 32 18 WNW 1015,7 10
22.09.2018 21:00:00 13,9 6,1 29 16 36 19 WNW 1015,6 10
22.09.2018 20:00:00 13,9 6,6 31 17 32 18 W 1015,5 10
22.09.2018 19:00:00 13,9 5,1 34 18 40 21 W 1015,2 10
22.09.2018 18:00:00 14,0 7,1 35 19 40 21 W 1015,3 10
22.09.2018 17:00:00 14,1 6,7 39 21 47 25 W 1015,6 10
22.09.2018 16:00:00 14,2 5,6 42 23 47 25 W 1015,4 10
22.09.2018 15:00:00 13,5 8,9 31 17 43 23 W 1015,8 10
22.09.2018 14:00:00 14,3 6,8 44 24 43 23 W 1015,8 10
22.09.2018 13:00:00 14,4 6,4 42 23 47 25 W 1015,5 10
22.09.2018 12:00:00 14,5 5,7 46 25 47 25 W 1015,4 10
22.09.2018 11:00:00 13,7 8,7 37 20 50 27 WZW 1015,3 10
22.09.2018 10:00:00 14,7 7,0 42 23 50 27 W 1015,0 10
22.09.2018 09:00:00 14,2 9,1 35 19 43 23 WZW 1014,7 10
22.09.2018 08:00:00 14,6 8,2 37 20 43 23 W 1014,2 10
22.09.2018 07:00:00 14,6 6,9 44 24 43 23 W 1013,9 10
22.09.2018 06:00:00 14,0 8,7 29 16 43 23 W 1013,7 10
22.09.2018 05:00:00 14,3 7,5 39 21 43 23 WNW 1013,2 10
22.09.2018 04:00:00 13,8 7,2 44 24 54 29 WNW 1012,7 10
22.09.2018 03:00:00 14,3 8,3 39 21 54 29 W 1011,7 10
22.09.2018 02:00:00 14,2 7,6 42 23 58 31 WNW 1011,1 10
22.09.2018 01:00:00 12,9 8,5 35 19 58 31 WZW 1009,1 6
22.09.2018 00:00:00 13,1 7,8 35 19 50 27 NW 1008,7 10
21.09.2018 23:00:00 12,7 8,8 42 23 47 25 W 1007,4 10
21.09.2018 22:00:00 13,1 7,8 41 22 58 31 WNW 1006,8 10
21.09.2018 21:00:00 14,5 7,0 41 22 58 31 W 1006,3 10
21.09.2018 20:00:00 14,0 8,1 44 24 54 29 W 1005,7 10
21.09.2018 19:00:00 13,0 6,5 44 24 68 37 W 1005,7 10
21.09.2018 18:00:00 14,7 6,1 54 29 61 33 W 1005,2 10
21.09.2018 17:00:00 14,6 7,6 54 29 58 31 WZW 1004,9 10
21.09.2018 16:00:00 14,8 7,4 55 30 61 33 WZW 1004,6 10
21.09.2018 15:00:00 13,6 6,9 54 29 61 33 W 1003,6 10
21.09.2018 14:00:00 14,2 6,9 57 31 61 33 W 1002,8 10
21.09.2018 13:00:00 14,7 7,4 55 30 65 35 W 1001,9 10
21.09.2018 12:00:00 14,4 7,4 59 32 61 33 W 1000,8 10
21.09.2018 11:00:00 14,8 8,1 54 29 61 33 W 1000,0 10
21.09.2018 10:00:00 15,1 9,2 63 34 65 35 W 998,3 10
21.09.2018 09:00:00 15,2 12,7 55 30 101 54 WZW 997,0 4,7
21.09.2018 08:00:00 18,7 13,5 70 38 79 43 ZZW 994,2 9
21.09.2018 07:00:00 18,9 13,4 61 33 65 35 ZZW 995,8 10
21.09.2018 06:00:00 19,0 13,5 57 31 65 35 Z 997,0 10
21.09.2018 05:00:00 18,8 13,8 52 28 54 29 Z 998,8 10
21.09.2018 04:00:00 18,8 13,7 50 27 50 27 Z 1000,4 10
21.09.2018 03:00:00 18,7 13,7 52 28 50 27 Z 1001,5 10
21.09.2018 02:00:00 18,6 13,8 48 26 50 27 Z 1002,9 10
21.09.2018 01:00:00 18,6 13,7 50 27 54 29 Z 1004,3 10
21.09.2018 00:00:00 17,4 14,9 29 16 36 19 Z 1005,5 10
20.09.2018 23:00:00 17,4 15,0 39 21 40 21 Z 1006,8 10
20.09.2018 22:00:00 17,6 14,8 35 19 40 21 Z 1007,8 10
20.09.2018 21:00:00 18,2 14,9 31 17 36 19 ZZW 1009,0 10
20.09.2018 20:00:00 18,4 14,7 34 18 32 18 ZZW 1009,6 10
20.09.2018 19:00:00 19,1 15,0 24 13 40 21 ZZW 1010,3 10
20.09.2018 18:00:00 19,0 14,8 39 21 43 23 ZW 1011,2 10
20.09.2018 17:00:00 19,3 14,9 39 21 43 23 ZZW 1011,5 10
20.09.2018 16:00:00 19,2 14,7 44 24 47 25 ZW 1012,3 10
20.09.2018 15:00:00 18,9 15,3 41 22 50 27 ZW 1012,7 10
20.09.2018 14:00:00 19,7 15,0 41 22 47 25 ZW 1012,3 10
20.09.2018 13:00:00 19,4 15,1 39 21 43 23 ZZW 1012,8 10
20.09.2018 12:00:00 19,2 15,2 35 19 47 25 ZZW 1012,6 10
20.09.2018 11:00:00 18,7 15,2 39 21 47 25 ZZW 1013,1 10
20.09.2018 10:00:00 17,7 15,6 31 17 40 21 ZZW 1013,1 10
20.09.2018 09:00:00 15,7 14,4 5 3 11 6 WZW 1013,6 4,7

tt = temperatuur
td = dauwpunt
ff = windsnelheid
fx = windstoten
dd = windrichting
ppp = luchtdruk
vv = zicht

Weerstations in de omgeving